• In Belarus
  • List of Countries
  • For 7 days
  • Water Temperature
  • Satellite Maps
  • Weather Map
  • Weather Widgets
  • user-avatar
    Login

    Hourly Weather Rusinow

    Today, 20 August, Monday

    Time Temperature Precipitation Wind Pressure Humidity
    00:00 +23°C° 0 mm 2 mps 752 mmHg 55%
    01:00 +23°C° 0 mm 2 mps 752 mmHg 58%
    02:00 +21°C° 0 mm 2 mps 752 mmHg 60%
    03:00 +21°C° 0 mm 2 mps 752 mmHg 63%
    04:00 +20°C° 0 mm 2 mps 751 mmHg 66%
    05:00 +21°C° 0 mm 3 mps 752 mmHg 64%
    06:00 +21°C° 0 mm 3 mps 752 mmHg 62%
    07:00 +22°C° 0 mm 3 mps 752 mmHg 61%
    08:00 +23°C° 0 mm 4 mps 752 mmHg 58%
    09:00 +26°C° 0 mm 4 mps 752 mmHg 55%
    10:00 +27°C° 0 mm 5 mps 752 mmHg 52%
    11:00 +27°C° 0 mm 5 mps 752 mmHg 53%
    12:00 +27°C° 0 mm 5 mps 752 mmHg 53%
    13:00 +27°C° 0 mm 5 mps 752 mmHg 54%
    14:00 +27°C° 0 mm 5 mps 752 mmHg 55%
    15:00 +26°C° 0 mm 5 mps 752 mmHg 55%
    16:00 +26°C° 0 mm 4 mps 752 mmHg 55%
    17:00 +25°C° 0 mm 4 mps 752 mmHg 59%
    18:00 +24°C° 0 mm 3 mps 752 mmHg 63%
    19:00 +23°C° 0 mm 2 mps 752 mmHg 67%
    20:00 +23°C° 0 mm 2 mps 753 mmHg 71%
    21:00 +21°C° 0 mm 2 mps 753 mmHg 75%
    22:00 +20°C° 0 mm 2 mps 753 mmHg 79%
    23:00 +19°C° 0 mm 2 mps 754 mmHg 81%

    Tomorrow, 21 August, Tuesday

    Time Temperature Precipitation Wind Pressure Humidity
    00:00 +18°C° 0 mm 2 mps 754 mmHg 83%
    01:00 +18°C° 0 mm 2 mps 754 mmHg 85%
    02:00 +17°C° 0 mm 2 mps 754 mmHg 84%
    03:00 +16°C° 0 mm 2 mps 754 mmHg 84%
    04:00 +16°C° 0 mm 2 mps 755 mmHg 83%
    05:00 +16°C° 0 mm 2 mps 755 mmHg 78%
    06:00 +17°C° 0 mm 2 mps 755 mmHg 74%
    07:00 +17°C° 0 mm 2 mps 756 mmHg 69%
    08:00 +19°C° 0 mm 2 mps 756 mmHg 62%
    09:00 +20°C° 0 mm 2 mps 756 mmHg 55%
    10:00 +22°C° 0 mm 3 mps 756 mmHg 48%
    11:00 +24°C° 0 mm 2 mps 756 mmHg 44%
    12:00 +25°C° 0 mm 2 mps 756 mmHg 39%
    13:00 +26°C° 0 mm 2 mps 756 mmHg 35%
    14:00 +26°C° 0 mm 2 mps 756 mmHg 34%
    15:00 +26°C° 0 mm 2 mps 756 mmHg 33%
    16:00 +26°C° 0 mm 2 mps 755 mmHg 32%
    17:00 +25°C° 0 mm 2 mps 755 mmHg 36%
    18:00 +23°C° 0 mm 2 mps 755 mmHg 41%
    19:00 +21°C° 0 mm 2 mps 755 mmHg 46%
    20:00 +20°C° 0 mm 2 mps 756 mmHg 50%
    21:00 +19°C° 0 mm 2 mps 756 mmHg 54%
    22:00 +18°C° 0 mm 2 mps 756 mmHg 58%
    23:00 +17°C° 0 mm 2 mps 756 mmHg 61%

    Day after tomorrow, 22 August, Wednesday

    Time Temperature Precipitation Wind Pressure Humidity
    00:00 +17°C° 0 mm 2 mps 756 mmHg 64%
    01:00 +16°C° 0 mm 2 mps 756 mmHg 67%
    02:00 +16°C° 0 mm 2 mps 756 mmHg 67%
    03:00 +16°C° 0 mm 2 mps 756 mmHg 68%
    04:00 +15°C° 0 mm 1 mps 756 mmHg 68%
    05:00 +17°C° 0 mm 2 mps 756 mmHg 64%
    06:00 +18°C° 0 mm 2 mps 756 mmHg 61%
    07:00 +19°C° 0 mm 2 mps 756 mmHg 58%
    08:00 +21°C° 0 mm 2 mps 756 mmHg 52%
    09:00 +24°C° 0 mm 2 mps 756 mmHg 46%
    10:00 +26°C° 0 mm 2 mps 755 mmHg 41%
    11:00 +27°C° 0 mm 2 mps 755 mmHg 39%
    12:00 +28°C° 0 mm 2 mps 755 mmHg 38%
    13:00 +29°C° 0 mm 2 mps 754 mmHg 36%
    14:00 +29°C° 0 mm 2 mps 754 mmHg 37%
    15:00 +29°C° 0 mm 2 mps 754 mmHg 38%
    16:00 +29°C° 0 mm 2 mps 753 mmHg 39%
    17:00 +28°C° 0 mm 2 mps 753 mmHg 43%
    18:00 +26°C° 0 mm 1 mps 753 mmHg 48%
    19:00 +25°C° 0 mm 1 mps 753 mmHg 52%
    20:00 +25°C° 0 mm 1 mps 753 mmHg 52%
    21:00 +24°C° 0 mm 2 mps 753 mmHg 52%
    22:00 +24°C° 0 mm 2 mps 753 mmHg 53%
    23:00 +24°C° 0 mm 2 mps 752 mmHg 53%

    23 August, Thursday

    Time Temperature Precipitation Wind Pressure Humidity
    00:00 +24°C° 0 mm 2 mps 752 mmHg 54%
    01:00 +23°C° 0 mm 2 mps 752 mmHg 54%
    02:00 +23°C° 0 mm 2 mps 752 mmHg 56%
    03:00 +21°C° 0 mm 2 mps 751 mmHg 57%
    04:00 +21°C° 0 mm 2 mps 751 mmHg 58%
    05:00 +23°C° 0 mm 2 mps 751 mmHg 58%
    06:00 +23°C° 0 mm 2 mps 751 mmHg 58%
    07:00 +24°C° 0 mm 2 mps 751 mmHg 58%
    08:00 +26°C° 0.1 mm 2 mps 751 mmHg 54%
    09:00 +28°C° 0.1 mm 2 mps 751 mmHg 49%
    10:00 +30°C° 0.1 mm 2 mps 750 mmHg 45%
    11:00 +30°C° 0 mm 2 mps 750 mmHg 43%
    12:00 +31°C° 0 mm 2 mps 749 mmHg 42%
    13:00 +31°C° 0 mm 2 mps 749 mmHg 40%
    14:00 +31°C° 0 mm 2 mps 749 mmHg 42%
    15:00 +31°C° 0 mm 1 mps 748 mmHg 43%
    16:00 +31°C° 0 mm 1 mps 748 mmHg 45%
    17:00 +30°C° 0 mm 1 mps 748 mmHg 47%
    18:00 +29°C° 0 mm 1 mps 747 mmHg 50%
    19:00 +28°C° 0 mm 1 mps 747 mmHg 53%
    20:00 +27°C° 0.1 mm 1 mps 747 mmHg 56%
    21:00 +26°C° 0.1 mm 1 mps 747 mmHg 59%
    22:00 +25°C° 0.1 mm 1 mps 747 mmHg 63%
    23:00 +24°C° 0.1 mm 2 mps 746 mmHg 65%

    24 August, Friday

    Time Temperature Precipitation Wind Pressure Humidity
    00:00 +23°C° 0.1 mm 2 mps 746 mmHg 68%
    01:00 +23°C° 0.1 mm 2 mps 746 mmHg 71%
    02:00 +23°C° 0.1 mm 2 mps 746 mmHg 73%
    03:00 +21°C° 0.1 mm 2 mps 745 mmHg 74%
    04:00 +21°C° 0.1 mm 2 mps 745 mmHg 76%
    05:00 +21°C° 0.1 mm 2 mps 745 mmHg 74%
    06:00 +22°C° 0.1 mm 3 mps 745 mmHg 73%
    07:00 +22°C° 0.1 mm 3 mps 746 mmHg 71%
    08:00 +25°C° 0.1 mm 3 mps 746 mmHg 66%
    09:00 +26°C° 0.1 mm 3 mps 746 mmHg 61%
    10:00 +27°C° 0.1 mm 3 mps 746 mmHg 56%
    11:00 +28°C° 0 mm 3 mps 746 mmHg 53%
    12:00 +29°C° 0 mm 3 mps 746 mmHg 49%
    13:00 +29°C° 0 mm 4 mps 746 mmHg 46%
    14:00 +27°C° 1.1 mm 3 mps 746 mmHg 58%
    15:00 +24°C° 1.1 mm 3 mps 746 mmHg 69%
    16:00 +21°C° 1.1 mm 3 mps 746 mmHg 81%
    17:00 +20°C° 0.7 mm 3 mps 746 mmHg 82%
    18:00 +20°C° 0.7 mm 2 mps 747 mmHg 83%
    19:00 +21°C° 0.7 mm 1 mps 747 mmHg 84%
    20:00 +19°C° 0 mm 2 mps 747 mmHg 82%
    21:00 +18°C° 0 mm 3 mps 748 mmHg 80%
    22:00 +17°C° 0 mm 4 mps 749 mmHg 78%
    23:00 +17°C° 0 mm 3 mps 749 mmHg 76%

    25 August, Saturday

    Time Temperature Precipitation Wind Pressure Humidity
    00:00 +17°C° 0 mm 3 mps 749 mmHg 75%
    01:00 +16°C° 0 mm 2 mps 749 mmHg 73%
    02:00 +16°C° 0 mm 2 mps 750 mmHg 73%
    03:00 +16°C° 0 mm 2 mps 750 mmHg 73%
    04:00 +16°C° 0 mm 1 mps 750 mmHg 72%
    05:00 +16°C° 0 mm 1 mps 750 mmHg 71%
    06:00 +16°C° 0 mm 1 mps 750 mmHg 69%
    07:00 +16°C° 0 mm 1 mps 751 mmHg 67%
    08:00 +18°C° 0 mm 1 mps 751 mmHg 62%
    09:00 +18°C° 0 mm 1 mps 751 mmHg 57%
    10:00 +18°C° 0 mm 2 mps 751 mmHg 52%
    11:00 +19°C° 0.3 mm 1 mps 751 mmHg 55%
    12:00 +18°C° 0.3 mm 1 mps 751 mmHg 57%
    13:00 +18°C° 0.3 mm 1 mps 751 mmHg 59%
    14:00 +18°C° 0.3 mm 1 mps 751 mmHg 61%
    15:00 +18°C° 0.3 mm 1 mps 751 mmHg 63%
    16:00 +18°C° 0.3 mm 1 mps 750 mmHg 65%
    17:00 +16°C° 0.2 mm 1 mps 750 mmHg 69%
    18:00 +15°C° 0.2 mm 2 mps 751 mmHg 74%
    19:00 +15°C° 0.2 mm 2 mps 751 mmHg 79%
    20:00 +14°C° 0 mm 2 mps 751 mmHg 81%
    21:00 +14°C° 0 mm 2 mps 751 mmHg 84%
    22:00 +13°C° 0 mm 2 mps 751 mmHg 86%
    23:00 +13°C° 0 mm 2 mps 750 mmHg 87%
    Show more